Location: Cran-Gévrier
(45.9039°N, 6.1012°E)
Time: 13:18:00
(UTC+00:00)

STRAND 1 - Visible Passes

Search period start: 08 December 2023 00:00
Search period end: 18 December 2023 00:00
Orbit: 765 x 779 km, 98.4° (Epoch: 07 December)

Date Brightness Start Highest point End Pass type
(mag) Time Alt. Az. Time Alt. Az. Time Alt. Az.
08 Dec ? 04:08:45 10° ESE 04:12:56 26° ENE 04:17:08 10° N visible
08 Dec ? 05:46:59 10° S 05:51:51 45° W 05:56:44 10° NNW visible
08 Dec ? 17:58:24 47° ENE 17:59:10 52° E 18:04:07 10° S visible
08 Dec ? 19:38:45 22° WNW 19:38:45 22° WNW 19:41:55 10° WSW visible
09 Dec ? 03:36:02 10° E 03:38:40 14° ENE 03:41:19 10° NNE visible
09 Dec ? 05:11:59 10° SSE 05:17:06 90° NNW 05:22:13 10° NNW visible
09 Dec ? 17:23:17 24° ENE 17:24:16 26° E 17:28:28 10° SSE visible
09 Dec ? 19:03:38 43° WNW 19:03:38 43° WNW 19:08:21 10° SW visible
10 Dec ? 04:37:40 10° SE 04:42:30 46° ENE 04:47:21 10° N visible
10 Dec ? 06:17:42 10° SSW 06:21:51 25° W 06:26:00 10° NW visible
10 Dec ? 16:48:10 12° ENE 16:49:10 13° E 16:51:22 10° ESE visible
10 Dec ? 18:28:31 74° N 18:29:00 86° WNW 18:34:05 10° SSW visible
10 Dec ? 20:08:52 12° WNW 20:08:52 12° WNW 20:09:50 10° W visible
11 Dec ? 04:04:03 10° ESE 04:08:05 24° ENE 04:12:07 10° N visible
11 Dec ? 05:42:00 10° S 05:46:56 49° W 05:51:53 10° NNW visible
11 Dec ? 17:53:23 43° ENE 17:54:15 47° E 17:59:09 10° S visible
11 Dec ? 19:33:44 25° WNW 19:33:44 25° WNW 19:37:13 10° WSW visible
12 Dec ? 03:31:34 10° E 03:33:51 13° NE 03:36:09 10° NNE visible
12 Dec ? 05:07:06 10° SSE 05:12:12 83° ENE 05:17:19 10° NNW visible
12 Dec ? 17:18:15 22° ENE 17:19:19 24° E 17:23:22 10° SE visible
12 Dec ? 18:58:36 48° WNW 18:58:42 48° WNW 19:03:34 10° SW visible
13 Dec ? 04:32:52 10° SE 04:37:38 42° ENE 04:42:24 10° N visible
13 Dec ? 06:12:37 10° SSW 06:16:54 27° W 06:21:13 10° NW visible
13 Dec ? 16:43:07 11° ENE 16:44:12 11° E 16:45:47 10° ESE visible
13 Dec ? 18:23:28 69° NNE 18:24:06 86° ESE 18:29:11 10° SSW visible
13 Dec ? 20:03:48 14° WNW 20:03:48 14° WNW 20:05:20 10° W visible
14 Dec ? 03:59:23 10° ESE 04:03:14 22° ENE 04:07:06 10° NNE visible
14 Dec ? 05:37:02 10° S 05:42:01 54° W 05:47:01 10° NNW visible
14 Dec ? 17:48:18 38° ENE 17:49:19 43° E 17:54:09 10° S visible
14 Dec ? 19:28:40 27° WNW 19:28:40 27° WNW 19:32:31 10° WSW visible
15 Dec ? 03:27:10 10° ENE 03:29:01 12° NE 03:30:53 10° NNE visible
15 Dec ? 05:02:13 10° SSE 05:07:18 75° ENE 05:12:24 10° N visible
15 Dec ? 17:13:10 20° ENE 17:14:22 21° E 17:18:14 10° SE visible
15 Dec ? 18:53:30 52° WNW 18:53:49 52° WNW 18:58:45 10° SW visible
16 Dec ? 04:28:05 10° SE 04:32:45 38° ENE 04:37:26 10° N visible
16 Dec ? 06:07:32 10° SSW 06:11:58 30° W 06:16:24 10° NW visible
16 Dec ? 16:38:55 10° E 16:39:13 10° E 16:39:33 10° E visible
16 Dec ? 18:18:21 62° NE 18:19:11 79° ESE 18:24:18 10° S visible
16 Dec ? 19:58:42 15° WNW 19:58:42 15° WNW 20:00:46 10° W visible
17 Dec ? 03:54:42 10° ESE 03:58:23 21° ENE 04:02:04 10° NNE visible
17 Dec ? 05:32:04 10° S 05:37:06 60° W 05:42:08 10° NNW visible
17 Dec ? 17:43:11 34° ENE 17:44:24 39° E 17:49:09 10° SSE visible
17 Dec ? 19:23:32 30° WNW 19:23:32 30° WNW 19:27:47 10° SW visible
